R/V Knorr Calliope CSV data file  (Time stamps are GMT)
Date, Time_GMT, Depth12, Depth35, Air_Temp, WXT5_Ta, WXT5_Pa, dec_lat, dec_lon, GPS_COG, GPS_SOG, Gyro, IMET_BPR, IMET_SWR, WXT5_Ri, WXT5_Rc, HRH, WXT5_Ua, WXT5_Dm, WXT5_Sm, SBE45C, SBE45S, SBE45T, Salinity, SSCND, Fluorometer, SSTMP, SSV, Wnd_Dir, TWD5, Wnd_Spd, TWS5, HdChkSum=3E
2009/04/06, 16:49:23, , , 25.81, 25.90, 1010.0, -0.7507020, -90.2950430, 14.60, 0.31, 108.70, 1009.91, 958.20, 0.0, 177.75, 86.03, 81.6, 346, 3.5, 55.42080, 34.37840, 28.0772, 34.3784, 55.4208, 689.40, 26.5756, 1537.44, 88.50, 84.6, 3.09, 3.4, 3E
2009/04/06, 16:50:22, , , 25.84, 25.90, 1010.0, -0.7506920, -90.2950430, 130.10, 0.13, 107.70, 1009.84, 960.20, 0.0, 177.75, 86.23, 80.0, 349, 4.0, 55.42280, 34.37550, 28.0831, 34.3755, 55.4228, 690.00, 26.5732, 1537.43, 93.20, 97.4, 3.27, 3.9, 3E
2009/04/06, 16:51:22, , , 25.71, 25.90, 1010.0, -0.7506780, -90.2950470, 196.00, 0.49, 106.50, 1009.83, 961.50, 0.0, 177.75, 85.75, 80.9, 342, 3.9, 55.42410, 34.37270, 28.0882, 34.3727, 55.4241, 690.00, 26.5697, 1537.42, 100.50, 88.1, 2.99, 3.8, 3E
2009/04/06, 16:52:22, , , 25.80, 25.90, 1010.0, -0.7506680, -90.2950450, 204.40, 0.11, 106.80, 1009.81, 963.50, 0.0, 177.75, 85.47, 81.1, 346, 4.4, 55.43150, 34.37130, 28.0971, 34.3713, 55.4315, 690.50, 26.5660, 1537.41, 100.30, 91.1, 3.49, 4.5, 3E
2009/04/06, 16:53:22, , , 25.84, 25.90, 1010.0, -0.7506650, -90.2950370, 68.40, 0.32, 109.00, 1009.76, 963.70, 0.0, 177.75, 85.66, 81.0, 358, 3.6, 55.44010, 34.37280, 28.1034, 34.3728, 55.4401, 690.00, 26.5631, 1537.41, 96.90, 104.3, 3.31, 3.6, 3E
2009/04/06, 16:54:22, , , 25.81, 25.90, 1010.0, -0.7506550, -90.2950320, 27.80, 0.12, 109.10, 1009.80, 965.30, 0.0, 177.75, 85.44, 80.5, 351, 4.1, 55.44450, 34.37540, 28.1040, 34.3754, 55.4445, 690.00, 26.5599, 1537.40, 105.40, 95.5, 3.09, 4.0, 3E
2009/04/06, 16:55:22, , , 25.79, 25.90, 1010.0, -0.7506450, -90.2950280, 325.60, 0.19, 108.80, 1009.81, 965.70, 0.0, 177.75, 85.33, 80.4, 348, 4.0, 55.44770, 34.37850, 28.1028, 34.3785, 55.4477, 690.20, 26.5576, 1537.40, 105.80, 92.3, 3.23, 3.9, 3E
2009/04/06, 16:56:22, , , 25.81, 25.90, 1009.9, -0.7506400, -90.2950250, 178.10, 0.29, 111.00, 1009.80, 966.40, 0.0, 177.75, 85.35, 80.4, 347, 4.1, 55.44610, 34.38110, 28.0977, 34.3811, 55.4461, 690.00, 26.5544, 1537.40, 106.30, 95.6, 3.55, 4.1, 3E
2009/04/06, 16:57:22, , , 25.83, 25.90, 1009.9, -0.7506370, -90.2950170, 37.30, 0.43, 114.50, 1009.79, 967.50, 0.0, 177.75, 85.28, 80.7, 346, 4.1, 55.43990, 34.38190, 28.0906, 34.3819, 55.4399, 690.50, 26.5511, 1537.39, 103.30, 93.5, 3.52, 4.1, 3E
2009/04/06, 16:58:23, , , 25.88, 25.90, 1009.9, -0.7506350, -90.2950080, 25.20, 0.43, 117.20, 1009.74, 970.40, 0.0, 177.75, 85.71, 80.5, 345, 3.9, 55.43480, 34.38200, 28.0857, 34.3820, 55.4348, 690.80, 26.5489, 1537.38, 105.00, 98.9, 3.39, 4.0, 3E
2009/04/06, 16:59:22, , , 25.82, 25.90, 1009.9, -0.7506400, -90.2950130, 249.00, 0.25, 118.10, 1009.68, 968.00, 0.0, 177.75, 85.33, 79.9, 337, 4.3, 55.43020, 34.38120, 28.0823, 34.3812, 55.4302, 691.20, 26.5480, 1537.38, 99.80, 94.5, 3.48, 4.3, 3E
2009/04/06, 17:00:22, , , 25.77, 25.90, 1009.9, -0.7506420, -90.2950130, 156.20, 0.54, 119.00, 1009.67, 972.30, 0.0, 177.75, 85.11, 79.9, 345, 4.3, 55.42730, 34.38140, 28.0792, 34.3814, 55.4273, 691.20, 26.5472, 1537.38, 105.70, 102.6, 3.37, 4.1, 3E
2009/04/06, 17:01:22, , , 25.77, 25.90, 1009.9, -0.7506380, -90.2950150, 222.20, 0.23, 118.50, 1009.73, 970.80, 0.0, 177.75, 85.02, 81.0, 338, 3.9, 55.42460, 34.38190, 28.0760, 34.3819, 55.4246, 691.50, 26.5461, 1537.38, 103.20, 93.6, 3.50, 4.0, 3E
2009/04/06, 17:02:22, , , 25.89, 25.90, 1009.9, -0.7506470, -90.2950150, 106.80, 0.28, 118.70, 1009.74, 971.00, 0.0, 177.75, 85.11, 80.0, 342, 4.5, 55.41980, 34.38220, 28.0710, 34.3822, 55.4198, 691.50, 26.5434, 1537.37, 94.40, 94.5, 3.60, 4.5, 3E
2009/04/06, 17:03:22, , , 25.79, 25.90, 1009.9, -0.7506520, -90.2950180, 325.10, 0.21, 119.30, 1009.69, 970.90, 0.0, 177.75, 84.64, 79.6, 336, 4.3, 55.41720, 34.38170, 28.0692, 34.3817, 55.4172, 691.80, 26.5418, 1537.37, 98.50, 90.1, 3.61, 4.3, 3E
2009/04/06, 17:04:23, , , 25.82, 25.90, 1009.9, -0.7506650, -90.2950170, 77.10, 0.27, 119.90, 1009.63, 973.10, 0.0, 177.75, 84.83, 80.6, 344, 4.4, 55.41320, 34.38100, 28.0664, 34.3810, 55.4132, 692.10, 26.5407, 1537.36, 98.90, 95.5, 3.37, 4.0, 3E
2009/04/06, 17:05:22, , , 25.85, 25.90, 1009.8, -0.7506680, -90.2950130, 334.50, 0.23, 119.20, 1009.74, 975.70, 0.0, 177.75, 84.33, 79.3, 344, 4.2, 55.41250, 34.38120, 28.0655, 34.3812, 55.4125, 691.80, 26.5396, 1537.36, 108.20, 101.1, 3.63, 4.2, 3E
2009/04/06, 17:06:23, , , 25.78, 25.90, 1009.8, -0.7506750, -90.2950150, 311.50, 0.11, 117.00, 1009.65, 976.30, 0.0, 177.75, 84.13, 79.4, 350, 3.7, 55.41030, 34.38040, 28.0644, 34.3804, 55.4103, 691.80, 26.5381, 1537.36, 103.10, 98.7, 3.69, 4.0, 3E
2009/04/06, 17:07:23, , , 25.89, 26.00, 1009.8, -0.7506730, -90.2950150, 173.70, 0.29, 114.20, 1009.58, 977.70, 0.0, 177.75, 84.51, 79.4, 353, 4.3, 55.41030, 34.37880, 28.0665, 34.3788, 55.4103, 691.80, 26.5381, 1537.36, 111.50, 102.3, 3.20, 4.3, 3E
2009/04/06, 17:08:22, , , 25.84, 26.00, 1009.8, -0.7506670, -90.2950230, 258.80, 0.32, 111.70, 1009.62, 976.60, 0.0, 177.75, 84.14, 79.4, 348, 4.4, 55.40850, 34.37670, 28.0677, 34.3767, 55.4085, 691.80, 26.5377, 1537.35, 109.30, 97.7, 3.48, 4.4, 3E
2009/04/06, 17:09:23, , , 25.86, 26.00, 1009.8, -0.7506600, -90.2950330, 293.40, 0.33, 110.20, 1009.61, 979.10, 0.0, 177.75, 83.93, 78.8, 351, 4.0, 55.40950, 34.37470, 28.0714, 34.3747, 55.4095, 692.10, 26.5377, 1537.35, 101.30, 97.7, 3.67, 4.1, 3E
2009/04/06, 17:10:22, , , 25.83, 26.00, 1009.8, -0.7506500, -90.2950380, 1.80, 0.43, 109.10, 1009.67, 978.20, 0.0, 177.75, 83.95, 80.2, 4, 4.1, 55.41240, 34.37270, 28.0770, 34.3727, 55.4124, 692.80, 26.5388, 1537.35, 109.80, 108.6, 3.17, 4.0, 3E
2009/04/06, 17:11:22, , , 25.96, 26.00, 1009.8, -0.7506400, -90.2950370, 245.90, 0.15, 107.80, 1009.58, 980.20, 0.0, 177.75, 84.29, 79.1, 359, 4.3, 55.41550, 34.37310, 28.0793, 34.3731, 55.4155, 693.20, 26.5412, 1537.36, 116.80, 104.7, 3.65, 4.2, 3E
2009/04/06, 17:12:22, , , 25.87, 26.00, 1009.8, -0.7506320, -90.2950300, 97.60, 0.28, 107.00, 1009.56, 981.00, 0.0, 177.75, 84.14, 79.2, 2, 4.0, 55.42000, 34.37450, 28.0818, 34.3745, 55.4200, 694.20, 26.5431, 1537.36, 116.40, 107.2, 3.38, 3.9, 3E
2009/04/06, 17:13:22, , , 25.90, 26.00, 1009.7, -0.7506270, -90.2950120, 27.70, 0.75, 107.40, 1009.51, 981.50, 0.0, 177.75, 84.27, 79.7, 4, 4.0, 55.42040, 34.37630, 28.0797, 34.3763, 55.4204, 694.20, 26.5438, 1537.37, 112.80, 103.7, 3.29, 4.1, 3E
2009/04/06, 17:14:22, , , 25.87, 26.00, 1009.7, -0.7506270, -90.2949980, 206.60, 0.05, 107.60, 1009.39, 983.00, 0.0, 177.75, 83.92, 78.9, 356, 3.8, 55.41880, 34.37740, 28.0766, 34.3774, 55.4188, 694.50, 26.5440, 1537.37, 114.50, 100.1, 3.06, 3.6, 3E
2009/04/06, 17:15:22, , , 25.90, 26.00, 1009.7, -0.7506220, -90.2949870, 154.00, 0.17, 108.10, 1009.51, 984.30, 0.0, 177.75, 84.22, 78.9, 0, 3.9, 55.41850, 34.37960, 28.0734, 34.3796, 55.4185, 694.80, 26.5449, 1537.37, 114.30, 104.0, 3.36, 3.9, 3E
2009/04/06, 17:16:22, , , 25.86, 26.00, 1009.7, -0.7506180, -90.2949850, 14.00, 0.20, 108.10, 1009.58, 986.20, 0.0, 177.75, 83.45, 78.6, 1, 4.5, 55.41720, 34.38010, 28.0713, 34.3801, 55.4172, 695.50, 26.5429, 1537.37, 121.10, 107.6, 3.49, 4.5, 3E
2009/04/06, 17:17:23, , , 25.86, 26.00, 1009.7, -0.7506100, -90.2949880, 335.90, 0.31, 108.50, 1009.48, 986.90, 0.0, 177.75, 83.60, 79.1, 358, 4.2, 55.41480, 34.38150, 28.0672, 34.3815, 55.4148, 695.50, 26.5415, 1537.37, 114.80, 103.2, 3.30, 4.1, 3E
2009/04/06, 17:18:22, , , 25.93, 26.00, 1009.7, -0.7506100, -90.2949980, 217.20, 0.48, 110.30, 1009.56, 986.60, 0.0, 177.75, 83.61, 78.5, 1, 4.2, 55.41270, 34.38260, 28.0636, 34.3826, 55.4127, 695.20, 26.5392, 1537.36, 115.90, 107.5, 3.51, 4.4, 3E
2009/04/06, 17:19:23, , , 25.90, 26.00, 1009.7, -0.7506070, -90.2950080, 190.10, 0.33, 112.00, 1009.48, 988.20, 0.0, 177.75, 83.50, 78.2, 350, 3.6, 55.40880, 34.38200, 28.0607, 34.3820, 55.4088, 696.10, 26.5361, 1537.35, 116.00, 99.7, 3.44, 3.7, 3E
2009/04/06, 17:20:22, , , 25.87, 26.00, 1009.7, -0.7506070, -90.2950150, 215.20, 0.22, 114.20, 1009.46, 988.30, 0.0, 177.75, 83.45, 77.9, 350, 4.4, 55.40660, 34.38200, 28.0586, 34.3820, 55.4066, 695.80, 26.5333, 1537.35, 115.90, 109.0, 3.45, 4.3, 3E
2009/04/06, 17:21:23, , , 25.86, 26.00, 1009.7, -0.7506130, -90.2950150, 213.20, 0.90, 116.50, 1009.50, 991.80, 0.0, 177.75, 83.04, 78.1, 350, 4.2, 55.40800, 34.38200, 28.0599, 34.3820, 55.4080, 695.80, 26.5319, 1537.34, 123.40, 109.1, 3.13, 3.9, 3E
2009/04/06, 17:22:22, , , 25.90, 26.00, 1009.7, -0.7506170, -90.2950070, 41.80, 0.44, 118.20, 1009.48, 991.90, 0.0, 177.75, 82.84, 78.5, 343, 4.1, 55.40790, 34.38230, 28.0594, 34.3823, 55.4079, 696.10, 26.5315, 1537.34, 108.70, 94.6, 3.50, 4.3, 3E
2009/04/06, 17:23:22, , , 25.93, 26.00, 1009.6, -0.7506270, -90.2950030, 151.00, 0.12, 119.90, 1009.40, 994.10, 0.0, 177.75, 83.17, 78.6, 339, 4.0, 55.40900, 34.38330, 28.0592, 34.3833, 55.4090, 696.10, 26.5314, 1537.34, 107.70, 93.9, 3.38, 4.0, 3E
2009/04/06, 17:24:22, , , 25.97, 26.00, 1009.6, -0.7506420, -90.2949980, 146.70, 0.38, 121.70, 1009.50, 995.50, 0.0, 177.75, 83.33, 78.7, 342, 3.4, 55.41000, 34.38470, 28.0582, 34.3847, 55.4100, 696.40, 26.5311, 1537.35, 106.80, 99.4, 3.59, 3.7, 3E
2009/04/06, 17:25:22, , , 25.98, 26.10, 1009.6, -0.7506430, -90.2950070, 292.50, 0.16, 120.90, 1009.45, 997.50, 0.0, 177.75, 83.55, 79.4, 344, 3.8, 55.40870, 34.38540, 28.0560, 34.3854, 55.4087, 696.40, 26.5301, 1537.34, 101.30, 101.1, 3.42, 4.0, 3E
2009/04/06, 17:26:22, , , 25.96, 26.10, 1009.5, -0.7506480, -90.2950130, 116.60, 0.21, 118.80, 1009.45, 998.90, 0.0, 177.75, 83.36, 79.0, 340, 4.0, 55.40760, 34.38570, 28.0545, 34.3857, 55.4076, 696.40, 26.5300, 1537.34, 110.70, 97.9, 2.83, 3.9, 3E
2009/04/06, 17:27:22, , , 25.95, 26.00, 1009.6, -0.7506550, -90.2950180, 11.40, 0.23, 116.30, 1009.35, 998.40, 0.0, 177.75, 83.45, 77.6, 338, 4.2, 55.40580, 34.38560, 28.0529, 34.3856, 55.4058, 696.60, 26.5302, 1537.34, 99.60, 89.1, 3.11, 4.2, 3E
2009/04/06, 17:28:23, , , 25.80, 26.00, 1009.6, -0.7506650, -90.2950230, 161.40, 0.28, 115.10, 1009.45, 998.90, 0.0, 177.75, 82.38, 76.6, 343, 4.2, 55.40180, 34.38540, 28.0494, 34.3854, 55.4018, 696.40, 26.5316, 1537.35, 100.20, 96.2, 3.43, 4.2, 3E
2009/04/06, 17:29:23, , , 25.84, 26.00, 1009.5, -0.7506770, -90.2950300, 170.30, 0.27, 114.30, 1009.44, 997.80, 0.0, 177.75, 82.32, 77.7, 344, 4.4, 55.40210, 34.38610, 28.0486, 34.3861, 55.4021, 697.20, 26.5345, 1537.35, 97.50, 96.0, 3.57, 4.4, 3E
2009/04/06, 17:30:22, , , 25.93, 26.00, 1009.5, -0.7506830, -90.2950320, 44.40, 0.74, 113.80, 1009.36, 998.30, 0.0, 177.75, 82.28, 78.1, 340, 3.8, 55.40230, 34.38630, 28.0486, 34.3863, 55.4023, 697.20, 26.5363, 1537.36, 93.50, 86.8, 3.55, 3.9, 3E
2009/04/06, 17:31:23, , , 26.00, 26.10, 1009.5, -0.7507050, -90.2950380, 239.60, 0.72, 112.50, 1009.30, 998.80, 0.0, 177.75, 82.79, 79.1, 347, 4.5, 55.40020, 34.38600, 28.0469, 34.3860, 55.4002, 697.60, 26.5391, 1537.37, 98.40, 96.6, 3.27, 4.1, 3E
2009/04/06, 17:32:22, , , 25.99, 26.10, 1009.5, -0.7507130, -90.2950370, 189.40, 0.39, 110.80, 1009.19, 999.70, 0.0, 177.75, 82.83, 78.6, 350, 3.5, 55.40100, 34.38580, 28.0480, 34.3858, 55.4010, 698.20, 26.5402, 1537.37, 98.20, 99.0, 3.26, 3.8, 3E
2009/04/06, 17:33:22, , , 26.02, 26.10, 1009.5, -0.7507080, -90.2950370, 51.10, 0.44, 106.90, 1009.30, 999.30, 0.0, 177.75, 83.71, 78.6, 352, 3.9, 55.40130, 34.38530, 28.0490, 34.3853, 55.4013, 699.20, 26.5427, 1537.37, 100.90, 97.7, 3.55, 3.6, 3E
2009/04/06, 17:34:22, , , 25.98, 26.10, 1009.5, -0.7507050, -90.2950430, 346.00, 0.42, 102.60, 1009.24, 997.90, 0.0, 177.75, 83.18, 78.9, 3, 3.9, 55.40210, 34.38480, 28.0504, 34.3848, 55.4021, 699.80, 26.5512, 1537.39, 95.40, 101.5, 3.18, 4.0, 3E
2009/04/06, 17:35:22, , , 25.96, 26.10, 1009.5, -0.7506980, -90.2950530, 6.10, 0.57, 98.00, 1009.24, 997.40, 0.0, 177.75, 83.35, 78.8, 5, 3.7, 55.40470, 34.38450, 28.0534, 34.3845, 55.4047, 699.50, 26.5810, 1537.46, 98.20, 97.3, 3.13, 3.9, 3E
2009/04/06, 17:36:22, , , 25.92, 26.00, 1009.5, -0.7506980, -90.2950580, 60.60, 0.33, 94.80, 1009.23, 995.80, 0.0, 177.75, 83.03, 78.6, 15, 3.9, 55.40680, 34.38390, 28.0563, 34.3839, 55.4068, 699.80, 26.6442, 1537.61, 112.30, 111.8, 3.18, 3.8, 3E
2009/04/06, 17:37:22, , , 25.93, 26.00, 1009.5, -0.7506930, -90.2950530, 65.70, 0.22, 94.90, 1009.20, 996.50, 0.0, 177.75, 83.58, 79.1, 10, 4.0, 55.41010, 34.38300, 28.0607, 34.3830, 55.4101, 700.00, 26.7159, 1537.77, 110.40, 98.8, 3.03, 4.0, 3E
2009/04/06, 17:38:22, , , 25.98, 26.00, 1009.4, -0.7506870, -90.2950400, 22.90, 0.06, 97.50, 1009.23, 997.30, 0.0, 177.75, 83.81, 79.6, 0, 4.1, 55.41240, 34.38360, 28.0621, 34.3836, 55.4124, 700.60, 26.7778, 1537.91, 118.60, 94.3, 3.08, 4.1, 3E
2009/04/06, 17:39:22, , , 26.01, 26.00, 1009.5, -0.7506900, -90.2950320, 237.40, 0.45, 101.10, 1009.23, 998.80, 0.0, 177.75, 84.08, 79.1, 9, 3.9, 55.41480, 34.38440, 28.0632, 34.3844, 55.4148, 700.60, 26.8013, 1537.97, 115.80, 108.5, 3.19, 3.9, 3E
2009/04/06, 17:40:22, , , 25.93, 26.00, 1009.4, -0.7506830, -90.2950250, 72.70, 0.49, 103.10, 1009.26, 999.60, 0.0, 177.75, 84.17, 79.9, 1, 3.5, 55.41560, 34.38560, 28.0623, 34.3856, 55.4156, 700.30, 26.7979, 1537.96, 116.20, 98.8, 3.40, 3.6, 3E
2009/04/06, 17:41:22, , , 25.97, 26.00, 1009.4, -0.7506820, -90.2950300, 210.20, 0.38, 102.40, 1009.19, 1000.10, 0.0, 177.75, 84.17, 79.0, 359, 3.8, 55.41610, 34.38670, 28.0613, 34.3867, 55.4161, 701.20, 26.7785, 1537.92, 111.60, 97.6, 3.35, 3.9, 3E
2009/04/06, 17:42:22, , , 25.90, 26.00, 1009.4, -0.7506800, -90.2950420, 165.10, 0.23, 101.80, 1009.25, 1000.80, 0.0, 177.75, 84.12, 78.4, 358, 3.6, 55.41320, 34.38740, 28.0576, 34.3874, 55.4132, 700.60, 26.7534, 1537.86, 110.30, 98.2, 3.13, 3.6, 3E
2009/04/06, 17:43:22, , , 25.84, 26.00, 1009.4, -0.7506830, -90.2950480, 151.10, 0.27, 101.90, 1009.21, 1001.40, 0.0, 177.75, 83.70, 79.7, 356, 4.1, 55.41170, 34.38690, 28.0568, 34.3869, 55.4117, 700.90, 26.7275, 1537.80, 109.70, 97.7, 3.03, 3.9, 3E
2009/04/06, 17:44:22, , , 26.01, 26.10, 1009.4, -0.7506900, -90.2950520, 41.20, 0.47, 102.30, 1009.23, 1001.90, 0.0, 177.75, 84.20, 80.6, 0, 3.9, 55.40870, 34.38600, 28.0551, 34.3860, 55.4087, 701.20, 26.7027, 1537.74, 103.10, 95.8, 3.15, 3.8, 3E
2009/04/06, 17:45:22, , , 26.02, 26.10, 1009.3, -0.7507000, -90.2950530, 214.40, 0.31, 102.90, 1009.17, 1001.50, 0.0, 177.75, 83.71, 78.9, 1, 3.7, 55.40920, 34.38520, 28.0568, 34.3852, 55.4092, 701.90, 26.6816, 1537.69, 107.30, 99.5, 2.98, 3.7, 3E
2009/04/06, 17:46:22, , , 25.93, 26.10, 1009.3, -0.7507100, -90.2950470, 196.50, 0.33, 102.50, 1009.10, 1001.40, 0.0, 177.75, 84.18, 79.6, 0, 3.6, 55.41120, 34.38510, 28.0587, 34.3851, 55.4112, 701.90, 26.6659, 1537.66, 116.10, 102.6, 2.99, 3.4, 3E
2009/04/06, 17:47:22, , , 26.01, 26.10, 1009.3, -0.7507170, -90.2950380, 340.70, 0.23, 101.80, 1009.12, 1000.90, 0.0, 177.75, 84.37, 79.7, 0, 3.8, 55.41210, 34.38400, 28.0612, 34.3840, 55.4121, 702.20, 26.6505, 1537.62, 102.40, 91.2, 2.79, 3.2, 3E
2009/04/06, 17:48:22, , , 25.96, 26.10, 1009.3, -0.7507230, -90.2950320, 27.40, 0.57, 102.20, 1009.12, 1001.80, 0.0, 177.75, 84.01, 79.5, 350, 3.6, 55.41320, 34.38250, 28.0643, 34.3825, 55.4132, 702.20, 26.6415, 1537.60, 96.50, 85.9, 3.10, 3.7, 3E
2009/04/06, 17:49:22, , , 25.98, 26.10, 1009.3, -0.7507400, -90.2950380, 271.20, 0.52, 101.90, 1009.06, 1001.70, 0.0, 177.75, 83.97, 77.9, 0, 3.9, 55.41560, 34.38110, 28.0684, 34.3811, 55.4156, 702.50, 26.6298, 1537.57, 98.20, 94.0, 3.03, 3.8, 3E
2009/04/06, 17:50:22, , , 25.85, 26.00, 1009.3, -0.7507400, -90.2950500, 100.00, 0.20, 100.20, 1009.04, 1001.40, 0.0, 177.75, 83.53, 77.6, 3, 3.8, 55.41930, 34.38050, 28.0729, 34.3805, 55.4193, 703.30, 26.6200, 1537.55, 101.70, 96.0, 3.17, 3.9, 3E
2009/04/06, 17:51:22, , , 25.86, 26.00, 1009.3, -0.7507270, -90.2950650, 18.80, 0.24, 98.30, 1008.93, 1000.70, 0.0, 177.75, 82.98, 77.9, 2, 4.2, 55.42350, 34.38040, 28.0771, 34.3804, 55.4235, 703.20, 26.6158, 1537.54, 106.80, 97.6, 3.55, 4.4, 3E
2009/04/06, 17:52:22, , , 25.88, 26.00, 1009.3, -0.7507230, -90.2950770, 208.80, 0.57, 96.80, 1009.00, 999.80, 0.0, 177.75, 82.51, 77.7, 3, 4.0, 55.42670, 34.37990, 28.0808, 34.3799, 55.4267, 703.30, 26.6293, 1537.57, 108.90, 100.1, 3.43, 4.1, 3E
2009/04/06, 17:53:22, , , 25.90, 26.00, 1009.3, -0.7507130, -90.2950680, 77.30, 0.39, 97.00, 1009.09, 1000.50, 0.0, 177.75, 82.28, 77.2, 4, 4.1, 55.42780, 34.37980, 28.0819, 34.3798, 55.4278, 703.60, 26.6529, 1537.62, 118.80, 104.8, 3.27, 3.9, 3E
2009/04/06, 17:54:22, , , 25.91, 26.00, 1009.3, -0.7507100, -90.2950550, 231.10, 0.24, 97.90, 1009.10, 1000.80, 0.0, 177.75, 82.11, 77.5, 4, 4.0, 55.43020, 34.37920, 28.0851, 34.3792, 55.4302, 704.90, 26.6691, 1537.66, 112.20, 99.9, 3.37, 4.0, 3E
2009/04/06, 17:55:23, , , 25.93, 26.00, 1009.3, -0.7507070, -90.2950320, 174.70, 0.27, 99.00, 1009.04, 1000.10, 0.0, 177.75, 82.09, 77.4, 15, 4.0, 55.42890, 34.37570, 28.0886, 34.3757, 55.4289, 704.90, 26.6809, 1537.68, 111.00, 110.7, 3.54, 4.2, 3E
2009/04/06, 17:56:23, , , 25.95, 26.10, 1009.2, -0.7507000, -90.2950180, 81.40, 0.41, 98.40, 1009.07, 999.20, 0.0, 177.75, 82.17, 77.4, 12, 3.7, 55.42750, 34.36450, 28.1027, 34.3645, 55.4275, 705.60, 26.6902, 1537.69, 123.50, 114.1, 3.28, 3.5, 3E
2009/04/06, 17:57:23, , , 25.97, 26.10, 1009.2, -0.7506870, -90.2950180, 8.10, 0.40, 96.20, 1009.06, 998.30, 0.0, 177.75, 82.24, 77.8, 15, 3.6, 55.43560, 34.34730, 28.1341, 34.3473, 55.4356, 706.70, 26.7150, 1537.73, 113.90, 104.8, 3.12, 3.5, 3E
2009/04/06, 17:58:22, , , 26.02, 26.10, 1009.2, -0.7506750, -90.2950220, 182.20, 0.58, 95.00, 1008.99, 998.70, 0.0, 177.75, 82.60, 77.2, 3, 3.6, 55.46230, 34.32840, 28.1856, 34.3284, 55.4623, 708.00, 26.7597, 1537.81, 120.10, 105.8, 3.27, 3.7, 3E
2009/04/06, 17:59:22, , , 25.96, 26.10, 1009.2, -0.7506550, -90.2950270, 23.90, 0.80, 95.60, 1008.97, 998.50, 0.0, 177.75, 82.47, 78.4, 13, 3.8, 55.51060, 34.31640, 28.2486, 34.3164, 55.5106, 707.60, 26.8057, 1537.90, 114.20, 106.8, 3.31, 3.6, 3E
2009/04/06, 18:00:22, , , 26.01, 26.10, 1009.2, -0.7506580, -90.2950320, 166.50, 0.42, 98.90, 1008.97, 998.90, 0.0, 177.75, 82.39, 78.6, 13, 3.7, 55.56810, 34.31660, 28.3033, 34.3166, 55.5681, 707.30, 26.8363, 1537.97, 118.10, 109.6, 3.15, 3.9, 3E
2009/04/06, 18:01:23, , , 26.00, 26.10, 1009.2, -0.7506530, -90.2950320, 296.00, 0.44, 102.90, 1009.02, 999.60, 0.0, 177.75, 82.32, 77.7, 11, 3.5, 55.62220, 34.32760, 28.3400, 34.3276, 55.6222, 707.30, 26.8434, 1538.00, 130.70, 116.3, 3.16, 3.4, 3E
2009/04/06, 18:02:22, , , 25.92, 26.10, 1009.2, -0.7506500, -90.2950220, 349.60, 0.17, 106.80, 1008.97, 999.70, 0.0, 177.75, 82.09, 78.0, 0, 3.7, 55.64970, 34.34230, 28.3460, 34.3423, 55.6497, 707.00, 26.8327, 1537.99, 129.10, 106.2, 3.10, 3.6, 3E
2009/04/06, 18:03:22, , , 26.05, 26.10, 1009.2, -0.7506570, -90.2950170, 180.00, 0.30, 110.10, 1008.89, 1000.40, 0.0, 177.75, 82.88, 78.2, 353, 3.7, 55.65450, 34.35580, 28.3321, 34.3558, 55.6545, 707.30, 26.8133, 1537.96, 125.10, 98.9, 2.71, 3.5, 3E
2009/04/06, 18:04:22, , , 25.98, 26.10, 1009.1, -0.7506570, -90.2950100, 81.20, 0.23, 113.20, 1008.91, 999.50, 0.0, 177.75, 82.24, 77.6, 349, 3.8, 55.63860, 34.36570, 28.3032, 34.3657, 55.6386, 707.60, 26.7919, 1537.92, 116.80, 100.8, 3.02, 3.8, 3E
2009/04/06, 18:05:22, , , 25.99, 26.10, 1009.1, -0.7506650, -90.2950120, 196.30, 0.28, 114.40, 1008.86, 998.40, 0.0, 177.75, 82.79, 77.7, 350, 3.8, 55.61110, 34.37260, 28.2675, 34.3726, 55.6111, 708.30, 26.7700, 1537.88, 109.90, 102.9, 3.07, 3.8, 3E
2009/04/06, 18:06:22, , , 25.94, 26.10, 1009.1, -0.7506770, -90.2950200, 192.60, 0.30, 113.20, 1008.91, 999.20, 0.0, 177.75, 82.13, 77.1, 347, 3.8, 55.57960, 34.37750, 28.2305, 34.3775, 55.5796, 708.90, 26.7474, 1537.84, 107.60, 98.9, 3.14, 3.8, 3E
2009/04/06, 18:07:22, , , 25.93, 26.10, 1009.1, -0.7506770, -90.2950270, 205.70, 0.33, 110.60, 1008.87, 1000.80, 0.0, 177.75, 82.22, 76.7, 351, 3.4, 55.54710, 34.37970, 28.1963, 34.3797, 55.5471, 709.70, 26.7266, 1537.79, 105.20, 100.1, 3.06, 3.4, 3E
2009/04/06, 18:08:22, , , 25.91, 26.10, 1009.1, -0.7506750, -90.2950320, 215.00, 0.39, 106.80, 1008.88, 999.90, 0.0, 177.75, 81.87, 77.0, 359, 3.0, 55.51860, 34.38060, 28.1678, 34.3806, 55.5186, 710.40, 26.7118, 1537.76, 103.20, 104.3, 2.75, 2.9, 3E
2009/04/06, 18:09:22, , , 25.97, 26.10, 1009.1, -0.7506750, -90.2950370, 334.20, 0.20, 102.90, 1008.81, 999.70, 0.0, 177.75, 81.94, 77.9, 358, 2.9, 55.49420, 34.38000, 28.1453, 34.3800, 55.4942, 710.70, 26.7135, 1537.76, 114.30, 102.9, 2.53, 2.8, 3E
2009/04/06, 18:10:22, , , 26.02, 26.10, 1009.0, -0.7506750, -90.2950370, 287.00, 0.22, 100.20, 1008.75, 999.40, 0.0, 177.75, 82.33, 77.1, 14, 3.4, 55.47400, 34.37970, 28.1263, 34.3797, 55.4740, 711.30, 26.7234, 1537.78, 102.80, 109.3, 2.40, 3.5, 3E
2009/04/06, 18:11:22, , , 25.98, 26.10, 1009.0, -0.7506680, -90.2950300, 31.20, 0.42, 99.50, 1008.87, 999.00, 0.0, 177.75, 82.02, 77.2, 11, 3.3, 55.46040, 34.37840, 28.1151, 34.3784, 55.4604, 711.60, 26.7371, 1537.81, 115.00, 107.9, 2.45, 3.2, 3E
2009/04/06, 18:12:23, , , 25.97, 26.10, 1008.9, -0.7506680, -90.2950200, 21.00, 0.60, 99.80, 1008.81, 999.30, 0.0, 177.75, 82.06, 77.8, 6, 3.1, 55.44740, 34.37540, 28.1068, 34.3754, 55.4474, 712.00, 26.7520, 1537.84, 114.70, 97.0, 2.43, 3.2, 3E
2009/04/06, 18:13:22, , , 26.07, 26.10, 1008.9, -0.7506670, -90.2950130, 9.30, 0.87, 100.70, 1008.79, 999.20, 0.0, 177.75, 82.66, 78.2, 5, 3.3, 55.44120, 34.36800, 28.1110, 34.3680, 55.4412, 712.00, 26.7644, 1537.86, 113.60, 101.6, 2.54, 3.5, 3E
2009/04/06, 18:14:22, , , 26.09, 26.10, 1009.0, -0.7506630, -90.2950100, 42.10, 0.59, 102.40, 1008.73, 1000.50, 0.0, 177.75, 82.95, 77.3, 3, 3.9, 55.44580, 34.36080, 28.1253, 34.3608, 55.4458, 711.60, 26.7737, 1537.88, 114.40, 103.8, 2.60, 4.1, 3E
2009/04/06, 18:15:22, , , 25.97, 26.10, 1009.0, -0.7506580, -90.2950180, 251.90, 0.20, 103.70, 1008.77, 1000.10, 0.0, 177.75, 82.30, 76.7, 2, 3.5, 55.46040, 34.35510, 28.1472, 34.3551, 55.4604, 711.30, 26.7773, 1537.88, 113.10, 99.0, 3.16, 3.7, 3E
2009/04/06, 18:16:22, , , 25.97, 26.10, 1008.9, -0.7506470, -90.2950250, 270.00, 0.41, 104.90, 1008.76, 1002.20, 0.0, 177.75, 82.29, 77.7, 2, 3.6, 55.48090, 34.35230, 28.1706, 34.3523, 55.4809, 711.60, 26.7743, 1537.87, 124.90, 109.6, 2.79, 3.3, 3E
2009/04/06, 18:17:22, , , 26.00, 26.10, 1008.9, -0.7506450, -90.2950320, 39.20, 0.76, 105.90, 1008.69, 1003.30, 0.0, 177.75, 82.02, 77.3, 1, 3.1, 55.50030, 34.35100, 28.1910, 34.3510, 55.5003, 711.60, 26.7684, 1537.86, 103.40, 96.1, 2.89, 3.4, 3E
2009/04/06, 18:18:22, , , 26.04, 26.10, 1008.9, -0.7506450, -90.2950320, 260.90, 0.19, 108.10, 1008.66, 1004.60, 0.0, 177.75, 82.35, 77.1, 354, 3.4, 55.51730, 34.34580, 28.2144, 34.3458, 55.5173, 712.00, 26.7592, 1537.83, 117.50, 98.9, 2.58, 3.3, 3E
2009/04/06, 18:19:22, , , 26.02, 26.10, 1008.9, -0.7506500, -90.2950270, 6.70, 0.39, 110.10, 1008.66, 1004.00, 0.0, 177.75, 82.09, 77.3, 350, 3.1, 55.53750, 34.33870, 28.2436, 34.3387, 55.5375, 712.60, 26.7505, 1537.80, 104.00, 95.5, 2.70, 3.1, 3E
2009/04/06, 18:20:22, , , 26.03, 26.10, 1008.9, -0.7506670, -90.2950220, 205.40, 0.56, 111.50, 1008.62, 1003.90, 0.0, 177.75, 82.08, 77.5, 346, 3.4, 55.56280, 34.33070, 28.2788, 34.3307, 55.5628, 712.00, 26.7409, 1537.77, 117.10, 96.3, 2.57, 3.2, 3E
2009/04/06, 18:21:22, , , 26.04, 26.10, 1008.8, -0.7506730, -90.2950130, 289.50, 0.21, 111.70, 1008.50, 1002.80, 0.0, 177.75, 82.53, 77.8, 348, 3.2, 55.59630, 34.32650, 28.3167, 34.3265, 55.5963, 712.00, 26.7291, 1537.74, 103.70, 96.7, 2.60, 3.1, 3E
2009/04/06, 18:22:22, , , 26.04, 26.10, 1008.7, -0.7506900, -90.2950130, 244.00, 0.68, 111.00, 1008.54, 1003.20, 0.0, 177.75, 82.58, 77.8, 350, 3.8, 55.63550, 34.32900, 28.3509, 34.3290, 55.6355, 712.60, 26.7200, 1537.72, 101.60, 98.9, 2.37, 3.7, 3E